When you browse on this site, cookies collect data to enhance your experience and personalize the content and advertising you see.
Visit our Privacy Policy to learn more. By continuing to use the site, you agree to this use of cookies and data.
  • In Hungary
  • List of Countries
  • For 7 days
  • Water Temperature
  • Satellite Maps
  • Weather Map
  • News
  • Weather Widgets
  • user-avatar
    Login

    Hourly Weather Rawson

    Today, 26 April, Friday

    Time Temperature Precipitation Wind Pressure Humidity
    00:00 +16°C° 0 mm 9 mps 765 mmHg 68%
    01:00 +16°C° 0 mm 8 mps 764 mmHg 68%
    02:00 +16°C° 0 mm 8 mps 764 mmHg 68%
    03:00 +16°C° 0 mm 8 mps 764 mmHg 69%
    04:00 +15°C° 0 mm 9 mps 763 mmHg 70%
    05:00 +15°C° 0 mm 9 mps 763 mmHg 71%
    06:00 +15°C° 0 mm 9 mps 763 mmHg 72%
    07:00 +15°C° 0 mm 9 mps 762 mmHg 74%
    08:00 +15°C° 0 mm 9 mps 762 mmHg 75%
    09:00 +16°C° 0 mm 9 mps 762 mmHg 67%
    10:00 +18°C° 0 mm 9 mps 761 mmHg 58%
    11:00 +19°C° 0 mm 9 mps 761 mmHg 49%
    12:00 +21°C° 0 mm 8 mps 761 mmHg 45%
    13:00 +22°C° 0 mm 7 mps 760 mmHg 40%
    14:00 +23°C° 0 mm 6 mps 759 mmHg 35%
    15:00 +23°C° 0 mm 5 mps 759 mmHg 36%
    16:00 +23°C° 0 mm 4 mps 759 mmHg 36%
    17:00 +22°C° 0 mm 3 mps 759 mmHg 37%
    18:00 +21°C° 0 mm 3 mps 759 mmHg 42%
    19:00 +20°C° 0 mm 2 mps 759 mmHg 47%
    20:00 +19°C° 0 mm 2 mps 759 mmHg 52%
    21:00 +18°C° 0 mm 2 mps 758 mmHg 54%
    22:00 +19°C° 0 mm 1 mps 758 mmHg 55%
    23:00 +19°C° 0 mm 1 mps 758 mmHg 56%

    Tomorrow, 27 April, Saturday

    Time Temperature Precipitation Wind Pressure Humidity
    00:00 +18°C° 0 mm 1 mps 758 mmHg 56%
    01:00 +18°C° 0 mm 1 mps 758 mmHg 56%
    02:00 +18°C° 0 mm 1 mps 757 mmHg 56%
    03:00 +17°C° 0 mm 2 mps 757 mmHg 58%
    04:00 +17°C° 0 mm 3 mps 756 mmHg 61%
    05:00 +15°C° 0 mm 5 mps 756 mmHg 63%
    06:00 +15°C° 0 mm 5 mps 756 mmHg 66%
    07:00 +15°C° 0 mm 5 mps 756 mmHg 69%
    08:00 +15°C° 0 mm 5 mps 755 mmHg 72%
    09:00 +17°C° 0 mm 4 mps 755 mmHg 68%
    10:00 +17°C° 0 mm 3 mps 755 mmHg 64%
    11:00 +18°C° 0 mm 2 mps 754 mmHg 60%
    12:00 +19°C° 0 mm 2 mps 754 mmHg 58%
    13:00 +19°C° 0 mm 2 mps 753 mmHg 57%
    14:00 +19°C° 0 mm 2 mps 752 mmHg 55%
    15:00 +19°C° 0 mm 2 mps 752 mmHg 54%
    16:00 +20°C° 0 mm 3 mps 752 mmHg 54%
    17:00 +20°C° 0 mm 3 mps 752 mmHg 53%
    18:00 +19°C° 0 mm 2 mps 752 mmHg 57%
    19:00 +18°C° 0 mm 2 mps 752 mmHg 60%
    20:00 +18°C° 0 mm 2 mps 752 mmHg 64%
    21:00 +17°C° 0 mm 2 mps 753 mmHg 66%
    22:00 +17°C° 0 mm 2 mps 753 mmHg 68%
    23:00 +16°C° 0 mm 2 mps 753 mmHg 70%

    Day after tomorrow, 28 April, Sunday

    Time Temperature Precipitation Wind Pressure Humidity
    00:00 +16°C° 0 mm 3 mps 753 mmHg 68%
    01:00 +15°C° 0 mm 5 mps 753 mmHg 66%
    02:00 +15°C° 0 mm 6 mps 754 mmHg 65%
    03:00 +14°C° 0 mm 6 mps 754 mmHg 62%
    04:00 +14°C° 0 mm 6 mps 754 mmHg 59%
    05:00 +13°C° 0 mm 6 mps 754 mmHg 56%
    06:00 +13°C° 0 mm 6 mps 754 mmHg 55%
    07:00 +13°C° 0 mm 6 mps 754 mmHg 55%
    08:00 +13°C° 0 mm 6 mps 754 mmHg 54%
    09:00 +14°C° 0 mm 6 mps 754 mmHg 48%
    10:00 +15°C° 0 mm 7 mps 754 mmHg 41%
    11:00 +17°C° 0 mm 7 mps 754 mmHg 35%
    12:00 +18°C° 0 mm 7 mps 754 mmHg 35%
    13:00 +20°C° 0 mm 7 mps 753 mmHg 35%
    14:00 +20°C° 0 mm 8 mps 752 mmHg 35%
    15:00 +21°C° 0 mm 8 mps 752 mmHg 32%
    16:00 +21°C° 0 mm 8 mps 752 mmHg 29%
    17:00 +21°C° 0 mm 8 mps 752 mmHg 26%
    18:00 +19°C° 0 mm 10 mps 752 mmHg 26%
    19:00 +18°C° 0 mm 12 mps 753 mmHg 27%
    20:00 +15°C° 0 mm 14 mps 753 mmHg 28%
    21:00 +14°C° 0 mm 13 mps 754 mmHg 30%
    22:00 +13°C° 0 mm 13 mps 755 mmHg 32%
    23:00 +12°C° 0 mm 13 mps 755 mmHg 34%

    29 April, Monday

    Time Temperature Precipitation Wind Pressure Humidity
    00:00 +12°C° 0 mm 13 mps 755 mmHg 35%
    01:00 +10°C° 0 mm 13 mps 755 mmHg 36%
    02:00 +10°C° 0 mm 13 mps 755 mmHg 37%
    03:00 +10°C° 0 mm 13 mps 755 mmHg 38%
    04:00 +9°C° 0 mm 13 mps 755 mmHg 39%
    05:00 +9°C° 0 mm 13 mps 756 mmHg 40%
    06:00 +9°C° 0 mm 13 mps 756 mmHg 41%
    07:00 +9°C° 0 mm 12 mps 757 mmHg 41%
    08:00 +9°C° 0 mm 12 mps 758 mmHg 42%
    09:00 +10°C° 0 mm 12 mps 758 mmHg 39%
    10:00 +11°C° 0 mm 11 mps 759 mmHg 36%
    11:00 +12°C° 0 mm 11 mps 759 mmHg 33%
    12:00 +13°C° 0 mm 10 mps 759 mmHg 31%
    13:00 +15°C° 0 mm 9 mps 759 mmHg 29%
    14:00 +16°C° 0 mm 8 mps 759 mmHg 27%
    15:00 +16°C° 0 mm 8 mps 758 mmHg 27%
    16:00 +16°C° 0 mm 8 mps 758 mmHg 28%
    17:00 +16°C° 0 mm 7 mps 758 mmHg 28%
    18:00 +15°C° 0 mm 8 mps 758 mmHg 30%
    19:00 +15°C° 0 mm 8 mps 758 mmHg 33%
    20:00 +13°C° 0 mm 9 mps 758 mmHg 35%
    21:00 +12°C° 0 mm 9 mps 758 mmHg 37%
    22:00 +12°C° 0 mm 9 mps 758 mmHg 40%
    23:00 +11°C° 0 mm 10 mps 758 mmHg 42%

    30 April, Tuesday

    Time Temperature Precipitation Wind Pressure Humidity
    00:00 +11°C° 0 mm 10 mps 758 mmHg 42%
    01:00 +11°C° 0 mm 9 mps 758 mmHg 43%
    02:00 +11°C° 0 mm 9 mps 758 mmHg 43%
    03:00 +10°C° 0 mm 9 mps 757 mmHg 44%
    04:00 +9°C° 0 mm 10 mps 757 mmHg 44%
    05:00 +9°C° 0 mm 10 mps 757 mmHg 45%
    06:00 +9°C° 0 mm 10 mps 757 mmHg 46%
    07:00 +10°C° 0 mm 9 mps 758 mmHg 48%
    08:00 +10°C° 0 mm 9 mps 758 mmHg 50%
    09:00 +12°C° 0 mm 10 mps 758 mmHg 47%
    10:00 +13°C° 0 mm 10 mps 759 mmHg 44%
    11:00 +14°C° 0 mm 10 mps 759 mmHg 41%
    12:00 +15°C° 0 mm 9 mps 759 mmHg 40%
    13:00 +16°C° 0 mm 8 mps 759 mmHg 39%
    14:00 +16°C° 0 mm 8 mps 759 mmHg 37%
    15:00 +16°C° 0 mm 7 mps 759 mmHg 38%
    16:00 +16°C° 0 mm 6 mps 758 mmHg 39%
    17:00 +16°C° 0 mm 5 mps 758 mmHg 39%
    18:00 +15°C° 0 mm 4 mps 759 mmHg 46%
    19:00 +13°C° 0 mm 3 mps 759 mmHg 53%
    20:00 +12°C° 0 mm 3 mps 759 mmHg 59%
    21:00 +13°C° 0 mm 4 mps 759 mmHg 54%
    22:00 +13°C° 0 mm 4 mps 759 mmHg 49%
    23:00 +13°C° 0 mm 5 mps 759 mmHg 44%

    1 May, Wednesday

    Time Temperature Precipitation Wind Pressure Humidity
    00:00 +13°C° 0 mm 5 mps 759 mmHg 46%
    01:00 +12°C° 0 mm 5 mps 759 mmHg 48%
    02:00 +11°C° 0 mm 6 mps 758 mmHg 50%
    03:00 +10°C° 0 mm 5 mps 758 mmHg 50%
    04:00 +10°C° 0 mm 5 mps 758 mmHg 50%
    05:00 +11°C° 0 mm 4 mps 757 mmHg 50%
    06:00 +11°C° 0 mm 4 mps 757 mmHg 50%
    07:00 +10°C° 0 mm 5 mps 756 mmHg 50%
    08:00 +10°C° 0 mm 5 mps 756 mmHg 50%
    09:00 +11°C° 0 mm 6 mps 755 mmHg 46%
    10:00 +14°C° 0 mm 6 mps 754 mmHg 41%
    11:00 +15°C° 0 mm 7 mps 753 mmHg 36%
    12:00 +16°C° 0 mm 7 mps 751 mmHg 34%
    13:00 +17°C° 0 mm 8 mps 750 mmHg 32%
    14:00 +19°C° 0 mm 9 mps 749 mmHg 30%
    15:00 +18°C° 0.2 mm 8 mps 748 mmHg 38%
    16:00 +17°C° 0.2 mm 7 mps 746 mmHg 47%
    17:00 +17°C° 0.2 mm 7 mps 745 mmHg 56%
    18:00 +17°C° 0 mm 8 mps 744 mmHg 53%
    19:00 +18°C° 0 mm 9 mps 743 mmHg 49%
    20:00 +19°C° 0 mm 10 mps 742 mmHg 45%
    21:00 +19°C° 0.1 mm 9 mps 741 mmHg 45%
    22:00 +19°C° 0.1 mm 9 mps 740 mmHg 45%
    23:00 +19°C° 0.1 mm 9 mps 739 mmHg 46%
    Show more